| time (UTC) | temp C | wind direction | speed KPH | gust KPH | rain 1hr cm | rain 24hr cm | rain mn cm | humidity % | barometer mb |
| 20260502221005 | 10 | 295 | 6.4 | 11.3 | 0.03 | 1.55 | 1.55 | 95 | 1010.8 |
| 20260502220504 | 10 | 295 | 6.4 | 11.3 | 0.03 | 1.55 | 1.55 | 95 | 1010.8 |
| 20260502220004 | 10 | 301 | 6.4 | 11.3 | 0.05 | 1.55 | 1.55 | 95 | 1010.9 |
| 20260502215503 | 10 | 311 | 6.4 | 11.3 | 0.05 | 1.55 | 1.55 | 95 | 1010.9 |
| 20260502215003 | 10 | 321 | 6.4 | 8.0 | 0.05 | 1.55 | 1.55 | 95 | 1010.9 |
| 20260502214504 | 10 | 328 | 6.4 | 8.0 | 0.05 | 1.55 | 1.55 | 95 | 1010.9 |
| 20260502214004 | 10 | 323 | 6.4 | 8.0 | 0.05 | 1.55 | 1.55 | 95 | 1010.9 |
| 20260502213503 | 10 | 303 | 6.4 | 8.0 | 0.08 | 1.55 | 1.55 | 95 | 1011.0 |
| 20260502213003 | 10 | 295 | 4.8 | 8.0 | 0.08 | 1.55 | 1.55 | 95 | 1011.1 |
| 20260502212505 | 10 | 294 | 4.8 | 11.3 | 0.10 | 1.55 | 1.55 | 95 | 1011.1 |
| 20260502210004 | 10 | 296 | 6.4 | 11.3 | 0.10 | 1.52 | 1.52 | 94 | 1011.3 |
| 20260502204503 | 11 | 256 | 3.2 | 8.0 | 0.15 | 1.50 | 1.50 | 94 | 1011.5 |
| 20260502204003 | 11 | 289 | 1.6 | 6.4 | 0.15 | 1.50 | 1.50 | 94 | 1011.5 |
| 20260502201004 | 11 | 341 | 4.8 | 9.7 | 0.33 | 1.45 | 1.45 | 94 | 1011.5 |
| 20260502195504 | 11 | 348 | 8.0 | 14.5 | 0.43 | 1.40 | 1.40 | 94 | 1011.4 |
| 20260502195004 | 11 | 345 | 8.0 | 14.5 | 0.43 | 1.37 | 1.37 | 94 | 1011.4 |
| 20260502193505 | 11 | 321 | 6.4 | 11.3 | 0.48 | 1.32 | 1.32 | 94 | 1011.5 |
| 20260502192505 | 11 | 329 | 8.0 | 9.7 | 0.51 | 1.27 | 1.27 | 93 | 1011.4 |
| 20260502191503 | 11 | 311 | 9.7 | 14.5 | 0.51 | 1.22 | 1.22 | 93 | 1011.6 |
| 20260502191005 | 11 | 314 | 8.0 | 14.5 | 0.43 | 1.12 | 1.12 | 93 | 1011.6 |
| 20260502190503 | 11 | 319 | 6.4 | 9.7 | 0.38 | 1.07 | 1.07 | 93 | 1011.7 |
| 20260502190005 | 11 | 328 | 4.8 | 9.7 | 0.33 | 1.02 | 1.02 | 93 | 1011.7 |
| 20260502185508 | 11 | 343 | 4.8 | 9.7 | 0.33 | 0.99 | 0.99 | 93 | 1011.8 |
| 20260502185006 | 12 | 357 | 4.8 | 8.0 | 0.33 | 0.97 | 0.97 | 92 | 1011.7 |
| 20260502183003 | 12 | 42 | 3.2 | 9.7 | 0.23 | 0.81 | 0.81 | 92 | 1011.7 |
| 20260502182503 | 12 | 29 | 3.2 | 9.7 | 0.25 | 0.79 | 0.79 | 92 | 1011.6 |
| 20260502181503 | 12 | 8 | 3.2 | 6.4 | 0.28 | 0.71 | 0.71 | 92 | 1011.6 |
| 20260502181004 | 12 | 355 | 4.8 | 14.5 | 0.28 | 0.71 | 0.71 | 92 | 1011.6 |
| 20260502180504 | 12 | 345 | 6.4 | 14.5 | 0.25 | 0.69 | 0.69 | 92 | 1011.6 |
| 20260502170503 | 13 | 271 | 3.2 | 6.4 | 0.41 | 0.43 | 0.43 | 87 | 1012.5 |
| 20260502164005 | 15 | 307 | 1.6 | 4.8 | 0.23 | 0.23 | 0.23 | 82 | 1013.0 |
| 20260502162505 | 15 | 329 | 0.0 | 1.6 | 0.13 | 0.15 | 0.15 | 79 | 1013.0 |
| 20260502162004 | 15 | 329 | 0.0 | 1.6 | 0.08 | 0.10 | 0.10 | 78 | 1013.0 |
| 20260502161503 | 15 | 329 | 0.0 | 1.6 | 0.05 | 0.08 | 0.08 | 77 | 1013.1 |
| 20260502160505 | 16 | 329 | 0.0 | 1.6 | 0.00 | 0.03 | 0.03 | 75 | 1013.0 |
| 20260502152003 | 16 | 14 | 4.8 | 6.4 | 0.00 | 0.03 | 0.03 | 69 | 1012.9 |
| 20260502151504 | 16 | 14 | 3.2 | 6.4 | 0.00 | 0.03 | 0.03 | 68 | 1012.9 |
| 20260502151004 | 16 | 14 | 3.2 | 6.4 | 0.00 | 0.03 | 0.03 | 68 | 1013.1 |
| 20260502150503 | 16 | 14 | 1.6 | 6.4 | 0.00 | 0.03 | 0.03 | 68 | 1013.2 |
| 20260502130505 | 17 | 314 | 3.2 | 8.0 | 0.00 | 0.15 | 0.03 | 66 | 1014.7 |
| 20260502123004 | 17 | 77 | 3.2 | 11.3 | 0.00 | 0.15 | 0.03 | 67 | 1015.1 |
| 20260502122503 | 17 | 93 | 3.2 | 8.0 | 0.00 | 0.15 | 0.03 | 67 | 1015.3 |
| 20260502121504 | 17 | 141 | 3.2 | 8.0 | 0.00 | 0.15 | 0.03 | 67 | 1015.4 |
| 20260502115505 | 16 | 29 | 3.2 | 6.4 | 0.00 | 0.15 | 0.03 | 69 | 1015.7 |
| 20260502114006 | 16 | 220 | 3.2 | 6.4 | 0.00 | 0.15 | 0.03 | 69 | 1016.0 |
| 20260502112504 | 15 | 256 | 4.8 | 12.9 | 0.00 | 0.15 | 0.03 | 70 | 1016.3 |
| 20260502112005 | 15 | 264 | 6.4 | 12.9 | 0.00 | 0.15 | 0.03 | 69 | 1016.3 |
| 20260502111503 | 15 | 259 | 4.8 | 12.9 | 0.00 | 0.15 | 0.03 | 69 | 1016.5 |
| 20260502111003 | 15 | 244 | 4.8 | 12.9 | 0.00 | 0.15 | 0.03 | 69 | 1016.6 |
| 20260502110504 | 16 | 243 | 4.8 | 12.9 | 0.00 | 0.15 | 0.03 | 68 | 1016.6 |
| 20260502110004 | 16 | 231 | 3.2 | 12.9 | 0.00 | 0.15 | 0.03 | 68 | 1016.6 |
| 20260502105004 | 16 | 202 | 3.2 | 14.5 | 0.00 | 0.15 | 0.03 | 70 | 1016.5 |
| 20260502104505 | 15 | 221 | 3.2 | 14.5 | 0.00 | 0.15 | 0.03 | 71 | 1016.5 |
| 20260502103505 | 15 | 222 | 6.4 | 16.1 | 0.00 | 0.15 | 0.03 | 71 | 1016.7 |
| 20260502102503 | 15 | 261 | 3.2 | 11.3 | 0.00 | 0.15 | 0.03 | 73 | 1016.8 |
| 20260502102004 | 15 | 254 | 4.8 | 12.9 | 0.00 | 0.15 | 0.03 | 74 | 1016.9 |
| 20260502101503 | 15 | 255 | 4.8 | 12.9 | 0.00 | 0.15 | 0.03 | 74 | 1017.0 |
| 20260502100503 | 14 | 213 | 3.2 | 8.0 | 0.00 | 0.15 | 0.03 | 76 | 1016.9 |
| 20260502091503 | 13 | 331 | 3.2 | 6.4 | 0.00 | 0.15 | 0.03 | 89 | 1017.3 |
| 20260502090504 | 12 | 246 | 3.2 | 6.4 | 0.00 | 0.15 | 0.03 | 91 | 1017.5 |
| 20260502071004 | 7 | 0 | 0.0 | 0.0 | 0.00 | 0.15 | 0.00 | 96 | 1017.9 |
| 20260502070008 | 7 | 0 | 0.0 | 1.6 | 0.00 | 0.15 | 0.00 | 96 | 1017.9 |
| 20260502065503 | 6 | 16 | 0.0 | 1.6 | 0.00 | 0.15 | 0.00 | 97 | 1018.0 |
| 20260502064505 | 6 | 16 | 0.0 | 1.6 | 0.00 | 0.15 | 0.00 | 96 | 1018.0 |
| 20260502062503 | 6 | 0 | 0.0 | 1.6 | 0.00 | 0.15 | 0.00 | 96 | 1018.1 |
| 20260502060506 | 6 | 16 | 1.6 | 3.2 | 0.00 | 0.15 | 0.00 | 96 | 1018.0 |
| 20260502055503 | 6 | 16 | 0.0 | 3.2 | 0.00 | 0.15 | 0.00 | 96 | 1017.9 |
| 20260502054505 | 5 | 16 | 0.0 | 1.6 | 0.00 | 0.15 | 0.00 | 95 | 1017.9 |
| 20260502053503 | 6 | 16 | 0.0 | 1.6 | 0.00 | 0.15 | 0.00 | 95 | 1017.8 |
| 20260502053003 | 6 | 16 | 0.0 | 1.6 | 0.00 | 0.15 | 0.00 | 95 | 1017.7 |
| 20260502052505 | 6 | 49 | 1.6 | 4.8 | 0.00 | 0.15 | 0.00 | 95 | 1017.7 |
| 20260502052004 | 6 | 61 | 0.0 | 4.8 | 0.00 | 0.15 | 0.00 | 95 | 1017.7 |
| 20260502051504 | 6 | 0 | 0.0 | 1.6 | 0.00 | 0.15 | 0.00 | 95 | 1017.7 |
| 20260502050503 | 6 | 87 | 1.6 | 3.2 | 0.00 | 0.15 | 0.00 | 95 | 1017.7 |
| 20260502050005 | 6 | 87 | 3.2 | 4.8 | 0.00 | 0.15 | 0.00 | 95 | 1017.7 |
| 20260502045006 | 6 | 75 | 3.2 | 4.8 | 0.00 | 0.15 | 0.00 | 96 | 1017.6 |
| 20260502042003 | 5 | 70 | 3.2 | 4.8 | 0.00 | 0.15 | 0.00 | 95 | 1017.8 |
| 20260502041504 | 5 | 76 | 3.2 | 6.4 | 0.00 | 0.15 | 0.00 | 95 | 1017.9 |
| 20260502040503 | 6 | 304 | 1.6 | 4.8 | 0.00 | 0.15 | 0.00 | 94 | 1018.1 |
| 20260502040004 | 6 | 288 | 1.6 | 3.2 | 0.00 | 0.15 | 0.00 | 95 | 1018.2 |
| 20260502035503 | 6 | 286 | 0.0 | 3.2 | 0.00 | 0.15 | 0.00 | 95 | 1018.1 |
| 20260502034504 | 6 | 0 | 0.0 | 0.0 | 0.00 | 0.15 | 0.00 | 95 | 1018.2 |
| 20260502033504 | 6 | 286 | 1.6 | 3.2 | 0.00 | 0.15 | 0.00 | 95 | 1018.2 |
| 20260502033003 | 6 | 286 | 0.0 | 1.6 | 0.00 | 0.15 | 0.00 | 94 | 1018.3 |
| 20260502032503 | 6 | 286 | 0.0 | 1.6 | 0.00 | 0.15 | 0.00 | 94 | 1018.2 |
| 20260502030503 | 6 | 286 | 1.6 | 3.2 | 0.00 | 0.15 | 0.00 | 94 | 1018.3 |
| 20260502030004 | 6 | 286 | 0.0 | 3.2 | 0.00 | 0.15 | 0.00 | 94 | 1018.3 |
| 20260502025503 | 7 | 286 | 0.0 | 1.6 | 0.00 | 0.15 | 0.00 | 94 | 1018.4 |
| 20260502024504 | 7 | 0 | 0.0 | 0.0 | 0.00 | 0.15 | 0.00 | 94 | 1018.2 |
| 20260502024004 | 7 | 286 | 0.0 | 1.6 | 0.00 | 0.15 | 0.00 | 94 | 1018.2 |
| 20260502023504 | 7 | 286 | 0.0 | 1.6 | 0.00 | 0.15 | 0.00 | 94 | 1018.3 |
| 20260502023004 | 7 | 286 | 0.0 | 1.6 | 0.00 | 0.15 | 0.00 | 94 | 1018.3 |
| 20260502022503 | 7 | 286 | 1.6 | 3.2 | 0.00 | 0.15 | 0.00 | 94 | 1018.4 |
| 20260502022003 | 7 | 286 | 1.6 | 3.2 | 0.00 | 0.15 | 0.00 | 94 | 1018.4 |
| 20260502020503 | 7 | 286 | 0.0 | 1.6 | 0.00 | 0.15 | 0.00 | 94 | 1018.6 |
| 20260502020003 | 7 | 286 | 0.0 | 1.6 | 0.00 | 0.15 | 0.00 | 94 | 1018.5 |
| 20260502015503 | 7 | 286 | 0.0 | 1.6 | 0.00 | 0.15 | 0.00 | 94 | 1018.5 |
| 20260502015004 | 7 | 286 | 0.0 | 1.6 | 0.00 | 0.15 | 0.00 | 94 | 1018.6 |
| 20260502014503 | 7 | 286 | 1.6 | 3.2 | 0.00 | 0.15 | 0.00 | 94 | 1018.6 |
| 20260502014003 | 7 | 286 | 1.6 | 3.2 | 0.00 | 0.15 | 0.00 | 94 | 1018.7 |
| 20260502013503 | 7 | 286 | 0.0 | 1.6 | 0.00 | 0.15 | 0.00 | 93 | 1018.6 |
| 20260502013004 | 7 | 286 | 0.0 | 3.2 | 0.00 | 0.15 | 0.00 | 94 | 1018.7 |
| 20260502012503 | 7 | 286 | 1.6 | 3.2 | 0.00 | 0.15 | 0.00 | 93 | 1018.8 |
| 20260502012003 | 7 | 284 | 3.2 | 3.2 | 0.00 | 0.15 | 0.00 | 93 | 1018.9 |
| 20260502011503 | 8 | 267 | 1.6 | 3.2 | 0.00 | 0.15 | 0.00 | 93 | 1018.9 |
| 20260502011004 | 8 | 278 | 1.6 | 4.8 | 0.00 | 0.15 | 0.00 | 93 | 1019.0 |
| 20260502010503 | 8 | 319 | 3.2 | 4.8 | 0.00 | 0.15 | 0.00 | 94 | 1018.9 |
| 20260502010003 | 8 | 326 | 4.8 | 6.4 | 0.00 | 0.15 | 0.00 | 94 | 1019.0 |
| 20260502005503 | 8 | 313 | 4.8 | 6.4 | 0.00 | 0.15 | 0.00 | 94 | 1019.0 |
| 20260502004003 | 8 | 285 | 0.0 | 3.2 | 0.00 | 0.15 | 0.00 | 93 | 1019.2 |
| 20260502003503 | 8 | 0 | 0.0 | 0.0 | 0.00 | 0.15 | 0.00 | 93 | 1019.2 |
| 20260502003004 | 8 | 0 | 0.0 | 0.0 | 0.00 | 0.15 | 0.00 | 93 | 1019.2 |
| 20260502002003 | 8 | 0 | 0.0 | 0.0 | 0.00 | 0.15 | 0.00 | 93 | 1019.3 |
| 20260502001003 | 8 | 0 | 0.0 | 0.0 | 0.00 | 0.15 | 0.00 | 94 | 1019.3 |
| 20260502000504 | 8 | 0 | 0.0 | 3.2 | 0.00 | 0.15 | 0.00 | 94 | 1019.3 |
| 20260502000003 | 8 | 285 | 0.0 | 3.2 | 0.00 | 0.15 | 0.00 | 93 | 1019.4 |
| 20260501235003 | 9 | 211 | 1.6 | 4.8 | 0.00 | 0.15 | 0.00 | 93 | 1019.5 |
| 20260501234004 | 9 | 171 | 1.6 | 6.4 | 0.00 | 0.15 | 0.00 | 93 | 1019.6 |
| 20260501233503 | 9 | 171 | 0.0 | 6.4 | 0.00 | 0.15 | 0.00 | 93 | 1019.5 |
| 20260501232503 | 9 | 0 | 0.0 | 0.0 | 0.00 | 0.15 | 0.00 | 93 | 1019.6 |
| 20260501232006 | 9 | 0 | 0.0 | 0.0 | 0.00 | 0.15 | 0.00 | 93 | 1019.7 |
| 20260501231503 | 9 | 0 | 0.0 | 0.0 | 0.00 | 0.15 | 0.00 | 92 | 1019.7 |
| 20260501230505 | 10 | 171 | 0.0 | 3.2 | 0.00 | 0.15 | 0.00 | 92 | 1019.6 |
| 20260501225004 | 10 | 171 | 1.6 | 3.2 | 0.00 | 0.15 | 0.15 | 92 | 1019.5 |
| 20260501224503 | 10 | 171 | 3.2 | 6.4 | 0.00 | 0.15 | 0.15 | 92 | 1019.5 |
| 20260501223503 | 10 | 171 | 1.6 | 6.4 | 0.00 | 0.15 | 0.15 | 92 | 1019.5 |
| 20260501222504 | 10 | 171 | 1.6 | 6.4 | 0.00 | 0.15 | 0.15 | 92 | 1019.5 |
| 20260501221503 | 10 | 171 | 1.6 | 3.2 | 0.00 | 0.15 | 0.15 | 92 | 1019.5 |